DW3528 Weather Reports


Display with metric or nautical units.
time (UTC)temp
F
wind
direction
speed
MPH
gust
MPH
rain 1hr
in
rain 24hr
in
rain mn
in
humidity
%
barometer
mb
20260509224029 54 161 0.0 0.0 0.00 0.00 0.00 90 1029.0
20260509223303 53 160 0.0 0.0 0.00 0.00 0.00 90 1029.0
20260509223018 53 160 0.0 0.0 0.00 0.00 0.00 90 1029.1
20260509222300 52 160 0.0 0.0 0.00 0.00 0.00 90 1029.0
20260509221801 52 160 0.0 0.0 0.00 0.00 0.00 90 1029.0
20260509221259 52 160 0.0 0.0 0.00 0.00 0.00 91 1028.9
20260509220759 51 155 0.0 0.0 0.00 0.00 0.00 90 1028.8
20260509220257 51 144 0.0 0.0 0.00 0.00 0.00 91 1028.8
20260509215757 51 142 0.0 0.0 0.00 0.00 0.00 90 1028.8
20260509215256 51 140 0.0 0.0 0.00 0.00 0.00 91 1028.7
20260509214750 51 133 0.0 1.0 0.00 0.00 0.00 91 1028.7
20260509214244 50 121 0.0 1.0 0.00 0.00 0.00 90 1028.6
20260509213738 50 121 0.0 0.0 0.00 0.00 0.00 91 1028.5
20260509213232 50 121 0.0 0.0 0.00 0.00 0.00 91 1028.5
20260509212953 50 121 0.0 0.0 0.00 0.00 0.00 91 1028.4
20260509212228 49 121 0.0 0.0 0.00 0.00 0.00 90 1028.4
20260509211947 49 121 0.0 0.0 0.00 0.00 0.00 90 1028.3
20260509211225 49 121 0.0 0.0 0.00 0.00 0.00 90 1028.2
20260509210722 49 121 0.0 0.0 0.00 0.00 0.00 90 1028.2
20260509210224 49 121 0.0 0.0 0.00 0.00 0.00 90 1028.1
20260509205722 49 121 0.0 0.0 0.00 0.00 0.00 90 1028.1
20260509205442 49 121 0.0 0.0 0.00 0.00 0.00 90 1028.1
20260509204721 49 121 0.0 0.0 0.00 0.00 0.00 90 1028.0
20260509204221 49 121 0.0 0.0 0.00 0.00 0.00 90 1028.0
20260509203720 49 121 0.0 0.0 0.00 0.00 0.00 90 1028.0
20260509203444 49 121 0.0 0.0 0.00 0.00 0.00 89 1027.9
20260509202718 49 121 0.0 0.0 0.00 0.00 0.00 89 1027.8
20260509202214 49 121 0.0 0.0 0.00 0.00 0.00 89 1027.7
20260509201715 49 121 0.0 0.0 0.00 0.00 0.00 89 1027.6
20260509201216 49 121 0.0 0.0 0.00 0.00 0.00 89 1027.6
20260509200712 49 121 0.0 0.0 0.00 0.00 0.00 89 1027.5
20260509200209 49 121 0.0 0.0 0.00 0.00 0.00 89 1027.4
20260509195708 49 121 0.0 0.0 0.00 0.00 0.00 89 1027.4
20260509195210 50 121 0.0 0.0 0.00 0.00 0.00 89 1027.2
20260509194707 50 121 0.0 0.0 0.00 0.00 0.00 89 1027.2
20260509194205 50 121 0.0 2.0 0.00 0.00 0.00 89 1027.1
20260509193924 50 121 0.0 2.0 0.00 0.00 0.00 89 1027.1
20260509193200 50 120 0.0 2.0 0.00 0.00 0.00 89 1027.0
20260509192659 50 119 0.0 2.0 0.00 0.00 0.00 89 1027.0
20260509192158 50 119 0.0 1.0 0.00 0.00 0.00 89 1026.9
20260509191655 50 118 0.0 0.0 0.00 0.00 0.00 89 1026.8
20260509191413 50 118 0.0 0.0 0.00 0.00 0.00 89 1026.8
20260509190656 50 118 0.0 0.0 0.00 0.00 0.00 89 1026.8
20260509190152 50 117 0.0 0.0 0.00 0.00 0.00 89 1026.7
20260509185650 50 118 0.0 0.0 0.00 0.00 0.00 89 1026.7
20260509185149 50 117 0.0 0.0 0.00 0.00 0.00 89 1026.7
20260509184649 50 117 0.0 0.0 0.00 0.00 0.00 89 1026.6
20260509184149 50 118 0.0 0.0 0.00 0.00 0.00 89 1026.6
20260509183908 50 117 0.0 0.0 0.00 0.00 0.00 88 1026.6
20260509183148 50 118 0.0 0.0 0.00 0.00 0.00 88 1026.5
20260509182648 50 118 0.0 0.0 0.00 0.00 0.00 88 1026.5
20260509182407 50 117 0.0 0.0 0.00 0.00 0.00 88 1026.4
20260509181649 50 118 0.0 0.0 0.00 0.00 0.00 88 1026.4
20260509181148 50 117 0.0 0.0 0.00 0.00 0.00 88 1026.3
20260509180648 50 117 0.0 0.0 0.00 0.00 0.00 88 1026.4
20260509180147 50 117 0.0 0.0 0.00 0.00 0.00 88 1026.4
20260509175646 50 117 0.0 0.0 0.00 0.00 0.00 88 1026.3
20260509175143 51 117 0.0 0.0 0.00 0.00 0.00 88 1026.2
20260509174643 51 118 0.0 0.0 0.00 0.00 0.00 88 1026.2
20260509174146 51 117 0.0 0.0 0.00 0.00 0.00 88 1026.2
20260509173644 51 117 0.0 0.0 0.00 0.00 0.00 88 1026.2
20260509173144 51 117 0.0 0.0 0.00 0.00 0.00 88 1026.2
20260509172645 51 118 0.0 0.0 0.00 0.00 0.00 88 1026.2
20260509172139 51 118 0.0 0.0 0.00 0.00 0.00 88 1026.2
20260509171901 51 117 0.0 0.0 0.00 0.00 0.00 88 1026.2
20260509171140 51 117 0.0 0.0 0.00 0.00 0.00 87 1026.1
20260509170640 51 117 0.0 0.0 0.00 0.00 0.00 87 1026.2
20260509170139 51 117 0.0 0.0 0.00 0.00 0.00 87 1026.2
20260509165640 51 118 0.0 0.0 0.00 0.00 0.00 87 1026.1
20260509165142 51 118 0.0 0.0 0.00 0.00 0.00 87 1026.2
20260509164640 51 117 0.0 0.0 0.00 0.00 0.00 87 1026.1
20260509164142 51 117 0.0 0.0 0.00 0.00 0.00 87 1026.2
20260509163640 51 117 0.0 0.0 0.00 0.00 0.00 87 1026.2
20260509163359 51 118 0.0 0.0 0.00 0.00 0.00 87 1026.2
20260509162902 51 117 0.0 0.0 0.00 0.00 0.00 87 1026.1
20260509162139 51 118 0.0 0.0 0.00 0.00 0.00 87 1026.1
20260509161639 52 117 0.0 0.0 0.00 0.00 0.00 87 1026.2
20260509161137 52 118 0.0 0.0 0.00 0.00 0.00 87 1026.2
20260509160637 52 118 0.0 0.0 0.00 0.00 0.00 87 1026.2
20260509160137 52 118 0.0 0.0 0.00 0.00 0.00 87 1026.2
20260509155638 52 117 0.0 0.0 0.00 0.00 0.00 87 1026.2
20260509155402 52 117 0.0 0.0 0.00 0.00 0.00 87 1026.1
20260509155307 52 118 0.0 0.0 0.00 0.00 0.00 87 1026.1
20260509154137 52 118 0.0 0.0 0.00 0.00 0.00 86 1026.1
20260509153637 52 118 0.0 0.0 0.00 0.00 0.00 86 1026.2
20260509153136 52 117 0.0 0.0 0.00 0.00 0.00 86 1026.2
20260509152638 52 117 0.0 0.0 0.00 0.00 0.00 86 1026.2
20260509152401 52 117 0.0 0.0 0.00 0.00 0.00 86 1026.3
20260509151638 52 117 0.0 0.0 0.00 0.00 0.00 86 1026.3
20260509151138 53 117 0.0 0.0 0.00 0.00 0.00 86 1026.3
20260509150637 53 117 0.0 0.0 0.00 0.00 0.00 85 1026.3
20260509150136 53 117 0.0 0.0 0.00 0.00 0.00 85 1026.3
20260509145637 53 117 0.0 0.0 0.00 0.00 0.00 85 1026.2
20260509145138 53 117 0.0 0.0 0.00 0.00 0.00 85 1026.2
20260509144639 53 117 0.0 0.0 0.00 0.00 0.00 85 1026.2
20260509144137 53 118 0.0 0.0 0.00 0.00 0.00 84 1026.2
20260509143636 53 118 0.0 0.0 0.00 0.00 0.00 84 1026.2
20260509143134 53 117 0.0 0.0 0.00 0.00 0.00 84 1026.2
20260509142635 53 117 0.0 0.0 0.00 0.00 0.00 84 1026.1
20260509142128 53 118 0.0 0.0 0.00 0.00 0.00 84 1026.2
20260509141622 53 117 0.0 0.0 0.00 0.00 0.00 84 1026.1
20260509141120 53 118 0.0 0.0 0.00 0.00 0.00 83 1026.1
20260509140620 53 118 0.0 0.0 0.00 0.00 0.00 83 1026.1
20260509140120 53 117 0.0 0.0 0.00 0.00 0.00 83 1026.1
20260509135619 54 117 0.0 0.0 0.00 0.00 0.00 83 1026.1
20260509135119 54 118 0.0 0.0 0.00 0.00 0.00 83 1026.2
20260509134617 54 118 0.0 0.0 0.00 0.00 0.00 83 1026.1
20260509134119 54 117 0.0 0.0 0.00 0.00 0.00 83 1026.2
20260509133615 54 118 0.0 0.0 0.00 0.00 0.00 83 1026.2
20260509133113 54 118 0.0 0.0 0.00 0.00 0.00 82 1026.2
20260509132613 54 117 0.0 0.0 0.00 0.00 0.00 82 1026.2
20260509132113 54 118 0.0 0.0 0.00 0.00 0.00 82 1026.2
20260509131610 54 117 0.0 0.0 0.00 0.00 0.00 81 1026.2
20260509131559 55 118 0.0 0.0 0.00 0.00 0.00 81 1026.3
20260509130829 55 118 0.0 0.0 0.00 0.00 0.00 81 1026.2
20260509130109 55 117 0.0 0.0 0.00 0.00 0.00 81 1026.2
20260509125609 55 118 0.0 0.0 0.00 0.00 0.00 81 1026.2
20260509125329 55 117 0.0 0.0 0.00 0.00 0.00 81 1026.3
20260509124606 55 117 0.0 0.0 0.00 0.00 0.00 81 1026.3
20260509124108 55 117 0.0 0.0 0.00 0.00 0.00 80 1026.3
20260509124054 55 117 0.0 0.0 0.00 0.00 0.00 80 1026.3
20260509123107 56 118 0.0 0.0 0.00 0.00 0.00 80 1026.3
20260509122609 56 118 0.0 0.0 0.00 0.00 0.00 80 1026.3
20260509122105 56 117 0.0 0.0 0.00 0.00 0.00 80 1026.4
20260509121606 56 118 0.0 0.0 0.00 0.00 0.00 80 1026.4
20260509121105 56 117 0.0 0.0 0.00 0.00 0.00 80 1026.4
20260509120605 56 118 0.0 0.0 0.00 0.00 0.00 80 1026.3
20260509120321 56 117 0.0 0.0 0.00 0.00 0.00 80 1026.4
20260509115827 56 118 0.0 0.0 0.00 0.00 0.00 80 1026.3
20260509115104 56 117 0.0 0.0 0.00 0.00 0.00 80 1026.3
20260509114605 56 117 0.0 0.0 0.00 0.00 0.00 80 1026.3
20260509114105 56 118 0.0 0.0 0.00 0.00 0.00 79 1026.3
20260509113559 56 118 0.0 0.0 0.00 0.00 0.00 79 1026.3
20260509113059 56 118 0.0 0.0 0.00 0.00 0.00 79 1026.3
20260509112601 56 117 0.0 0.0 0.00 0.00 0.00 79 1026.2
20260509112101 56 117 0.0 0.0 0.00 0.00 0.00 79 1026.3
20260509111600 57 117 0.0 0.0 0.00 0.00 0.00 79 1026.2
20260509111058 57 118 0.0 0.0 0.00 0.00 0.00 78 1026.2
20260509110600 57 118 0.0 0.0 0.00 0.00 0.00 78 1026.2
20260509110100 57 118 0.0 0.0 0.00 0.00 0.00 78 1026.2
20260509105601 57 118 0.0 0.0 0.00 0.00 0.00 78 1026.2
20260509105059 57 118 0.0 0.0 0.00 0.00 0.00 78 1026.2
20260509104559 57 117 0.0 0.0 0.00 0.00 0.00 78 1026.1
20260509104058 57 117 0.0 0.0 0.00 0.00 0.00 77 1026.1
20260509103557 57 118 0.0 0.0 0.00 0.00 0.00 77 1026.1
20260509103056 57 117 0.0 0.0 0.00 0.00 0.00 77 1026.0
20260509102559 58 117 0.0 0.0 0.00 0.00 0.00 76 1026.0
20260509102550 58 118 0.0 0.0 0.00 0.00 0.00 76 1025.9
20260509101557 58 117 0.0 0.0 0.00 0.00 0.00 76 1025.9
20260509101059 58 117 0.0 0.0 0.00 0.00 0.00 75 1025.9
20260509100557 58 117 0.0 0.0 0.00 0.00 0.00 75 1025.9
20260509100057 58 117 0.0 0.0 0.00 0.00 0.00 74 1025.8
20260509095557 58 118 0.0 0.0 0.00 0.00 0.00 74 1025.8
20260509095056 59 117 0.0 0.0 0.00 0.00 0.00 73 1025.8
20260509094821 59 117 0.0 0.0 0.00 0.00 0.00 72 1025.7
20260509094056 59 117 0.0 0.0 0.00 0.00 0.00 72 1025.6
20260509093557 60 117 0.0 0.0 0.00 0.00 0.00 72 1025.6
20260509093548 60 117 0.0 0.0 0.00 0.00 0.00 71 1025.5
20260509092558 60 117 0.0 0.0 0.00 0.00 0.00 71 1025.5
20260509092057 60 117 0.0 0.0 0.00 0.00 0.00 70 1025.4
20260509091558 61 117 0.0 0.0 0.00 0.00 0.00 69 1025.3
20260509091057 61 118 0.0 0.0 0.00 0.00 0.00 68 1025.3
20260509090830 62 117 0.0 0.0 0.00 0.00 0.00 67 1025.2
20260509090058 62 117 0.0 0.0 0.00 0.00 0.00 66 1025.1
20260509085554 62 118 0.0 0.0 0.00 0.00 0.00 66 1025.1
20260509085540 62 117 0.0 0.0 0.00 0.00 0.00 65 1025.0
20260509084554 63 118 0.0 0.0 0.00 0.00 0.00 64 1024.9
20260509084050 63 117 0.0 0.0 0.00 0.00 0.00 64 1024.8
20260509083550 63 117 0.0 0.0 0.00 0.00 0.00 64 1024.8
20260509083319 63 117 0.0 0.0 0.00 0.00 0.00 64 1024.7
20260509082551 64 117 0.0 0.0 0.00 0.00 0.00 65 1024.7
20260509082046 64 117 0.0 0.0 0.00 0.00 0.00 65 1024.6
20260509081539 64 117 0.0 0.0 0.00 0.00 0.00 65 1024.5
20260509081518 64 117 0.0 0.0 0.00 0.00 0.00 64 1024.4
20260509080528 64 117 0.0 0.0 0.00 0.00 0.00 64 1024.4
20260509080022 64 117 0.0 0.0 0.00 0.00 0.00 64 1024.3
20260509075516 64 117 0.0 0.0 0.00 0.00 0.00 64 1024.2
20260509075010 65 117 0.0 0.0 0.00 0.00 0.00 63 1024.2
20260509074503 65 117 0.0 0.0 0.00 0.00 0.00 63 1024.1
20260509073959 65 118 0.0 0.0 0.00 0.00 0.00 63 1024.1
20260509073452 65 117 0.0 0.0 0.00 0.00 0.00 63 1024.0
20260509072945 65 117 0.0 0.0 0.00 0.00 0.00 62 1023.9
20260509072441 65 117 0.0 0.0 0.00 0.00 0.00 62 1023.9
20260509071940 65 118 0.0 0.0 0.00 0.00 0.00 62 1023.9
20260509071440 66 117 0.0 0.0 0.00 0.00 0.00 61 1023.8
20260509070941 66 117 0.0 0.0 0.00 0.00 0.00 61 1023.7
20260509070440 66 117 0.0 0.0 0.00 0.00 0.00 61 1023.7
20260509065941 66 118 0.0 0.0 0.00 0.00 0.00 60 1023.6
20260509065441 67 117 0.0 0.0 0.00 0.00 0.00 60 1023.5
20260509064941 67 118 0.0 0.0 0.00 0.00 0.00 60 1023.5
20260509064438 67 118 0.0 1.0 0.00 0.00 0.00 59 1023.4
20260509063940 67 118 0.0 1.0 0.00 0.00 0.00 58 1023.4
20260509063440 68 117 0.0 1.0 0.00 0.00 0.00 58 1023.3
20260509062937 68 118 0.0 1.0 0.00 0.00 0.00 57 1023.3
20260509062438 68 117 0.0 1.0 0.00 0.00 0.00 57 1023.1
20260509061939 68 117 0.0 9.0 0.00 0.00 0.00 56 1023.1
20260509061702 69 117 0.0 9.0 0.00 0.00 0.00 55 1023.0
20260509060934 69 115 0.0 0.0 0.00 0.00 0.00 55 1023.0
20260509060434 69 121 0.0 2.0 0.00 0.00 0.00 54 1022.9
20260509055935 70 121 0.0 2.0 0.00 0.00 0.00 54 1022.9
20260509055429 70 122 0.0 3.0 0.00 0.00 0.00 53 1022.8
20260509054924 70 123 0.0 3.0 0.00 0.00 0.00 53 1022.8
20260509054419 71 150 0.0 4.0 0.00 0.00 0.00 52 1022.8
20260509053912 71 160 0.0 4.0 0.00 0.00 0.00 51 1022.7
20260509053406 72 266 0.0 0.0 0.00 0.00 0.00 50 1022.6
20260509052951 73 266 0.0 0.0 0.00 0.00 0.00 49 1022.6
20260509051848 73 266 0.0 0.0 0.00 0.00 0.00 47 1022.6
20260509051558 74 266 0.0 0.0 0.00 0.00 0.00 43 1022.5
20260509050842 73 266 0.0 0.0 0.00 0.00 0.00 43 1022.5
20260509050339 73 266 0.0 0.0 0.00 0.00 0.00 43 1022.5
20260509045838 73 266 0.0 0.0 0.00 0.00 0.00 42 1022.5
20260509045334 74 266 0.0 0.0 0.00 0.00 0.00 42 1022.5
20260509044836 74 266 0.0 0.0 0.00 0.00 0.00 43 1022.5
20260509044335 74 266 0.0 0.0 0.00 0.00 0.00 43 1022.5
20260509043832 74 266 0.0 0.0 0.00 0.00 0.00 43 1022.5
20260509043330 74 266 0.0 0.0 0.00 0.00 0.00 42 1022.5
20260509042832 74 266 0.0 0.0 0.00 0.00 0.00 42 1022.5
20260509042332 74 266 0.0 0.0 0.00 0.00 0.00 42 1022.5
20260509041830 74 266 1.0 13.0 0.00 0.00 0.00 44 1022.5
20260509041328 74 266 1.0 13.0 0.00 0.00 0.00 43 1022.5
20260509040827 74 265 0.0 2.0 0.00 0.00 0.00 43 1022.5
20260509040323 74 265 0.0 3.0 0.00 0.00 0.00 44 1022.5
20260509035822 74 265 0.0 3.0 0.00 0.00 0.00 44 1022.5
20260509035324 73 263 0.0 1.0 0.00 0.00 0.00 43 1022.5
20260509034822 73 263 0.0 2.0 0.00 0.00 0.00 44 1022.5
20260509034544 73 263 0.0 2.0 0.00 0.00 0.00 44 1022.6
20260509033824 73 263 1.0 15.0 0.00 0.00 0.00 44 1022.6
20260509033318 73 264 2.0 15.0 0.00 0.00 0.00 43 1022.6
20260509033252 73 266 1.0 7.0 0.00 0.00 0.00 43 1022.6
20260509032307 73 264 0.0 2.0 0.00 0.00 0.00 44 1022.7
20260509031759 72 264 0.0 3.0 0.00 0.00 0.00 44 1022.7
20260509031253 72 264 0.0 3.0 0.00 0.00 0.00 44 1022.8
20260509030748 72 266 1.0 7.0 0.00 0.00 0.00 44 1022.9
20260509030242 72 269 2.0 16.0 0.00 0.00 0.00 44 1022.9
20260509025959 73 263 2.0 16.0 0.00 0.00 0.00 44 1023.0
20260509025230 73 251 1.0 11.0 0.00 0.00 0.00 44 1023.0
20260509024723 73 260 1.0 8.0 0.00 0.00 0.00 44 1023.1
20260509024218 73 301 1.0 8.0 0.00 0.00 0.00 44 1023.2
20260509023711 72 264 0.0 7.0 0.00 0.00 0.00 44 1023.3
20260509023206 72 261 0.0 7.0 0.00 0.00 0.00 45 1023.4
20260509022659 72 280 0.0 0.0 0.00 0.00 0.00 45 1023.4
20260509022154 72 280 0.0 0.0 0.00 0.00 0.00 46 1023.6
20260509021648 72 280 0.0 2.0 0.00 0.00 0.00 46 1023.7
20260509021142 72 280 0.0 2.0 0.00 0.00 0.00 46 1023.7
20260509020636 71 280 0.0 2.0 0.00 0.00 0.00 47 1023.8
20260509020130 71 281 0.0 0.0 0.00 0.00 0.00 47 1023.9
20260509015623 71 281 0.0 0.0 0.00 0.00 0.00 47 1024.0
20260509015119 71 281 0.0 0.0 0.00 0.00 0.00 48 1024.1
20260509014611 70 281 0.0 0.0 0.00 0.00 0.00 49 1024.1
20260509014106 70 281 0.0 0.0 0.00 0.00 0.00 49 1024.2
20260509013831 69 281 0.0 4.0 0.00 0.00 0.00 50 1024.3
20260509013323 69 281 0.0 4.0 0.00 0.00 0.00 50 1024.3
20260509012812 69 281 0.0 9.0 0.00 0.00 0.00 52 1024.3
20260509012041 69 281 1.0 9.0 0.00 0.00 0.00 52 1024.3
20260509011535 69 279 0.0 8.0 0.00 0.00 0.00 52 1024.4
20260509011253 69 278 0.0 7.0 0.00 0.00 0.00 53 1024.3
20260509010524 68 278 0.0 7.0 0.00 0.00 0.00 53 1024.4
20260509010020 68 271 0.0 0.0 0.00 0.00 0.00 54 1024.5
20260509005512 67 271 0.0 7.0 0.00 0.00 0.00 56 1024.6
20260509005005 67 271 0.0 7.0 0.00 0.00 0.00 57 1024.7
20260509004459 67 271 0.0 7.0 0.00 0.00 0.00 57 1024.7
20260509003954 66 271 1.0 7.0 0.00 0.00 0.00 58 1024.7
20260509003448 66 262 0.0 7.0 0.00 0.00 0.00 59 1024.7
20260509003207 65 263 1.0 7.0 0.00 0.00 0.00 61 1024.8
20260509002436 65 263 1.0 7.0 0.00 0.00 0.00 62 1024.8
20260509001930 65 263 1.0 8.0 0.00 0.00 0.00 63 1024.8
20260509001424 64 263 1.0 8.0 0.00 0.00 0.00 63 1024.8
20260509000918 64 263 1.0 7.0 0.00 0.00 0.00 64 1024.8
20260509000412 64 263 0.0 3.0 0.00 0.00 0.00 65 1024.9
20260509000126 63 263 0.0 2.0 0.00 0.00 0.00 67 1024.9
20260508235400 63 263 0.0 7.0 0.00 0.00 0.00 67 1025.0
20260508234854 62 263 0.0 7.0 0.00 0.00 0.00 67 1024.9
20260508234348 62 263 0.0 10.0 0.00 0.00 0.00 68 1025.0
20260508234059 62 263 0.0 10.0 0.00 0.00 0.00 69 1024.9
20260508233554 61 263 0.0 0.0 0.00 0.00 0.00 70 1025.0
20260508232830 61 263 0.0 2.0 0.00 0.00 0.00 70 1025.0
20260508232324 60 263 0.0 2.0 0.00 0.00 0.00 72 1024.9
20260508231818 60 263 0.0 0.0 0.00 0.00 0.00 73 1024.9
20260508231311 60 263 0.0 0.0 0.00 0.00 0.00 75 1025.0
20260508230806 59 263 0.0 0.0 0.00 0.00 0.00 75 1025.0
20260508230259 58 263 0.0 0.0 0.00 0.00 0.00 77 1025.0
20260508230019 58 263 0.0 0.0 0.00 0.00 0.00 78 1025.0
20260508225248 57 263 0.0 0.0 0.00 0.00 0.00 81 1024.9
20260508224742 57 263 0.0 0.0 0.00 0.00 0.00 83 1024.9